User: anonymous   Login
Location: Unspecified
(0.0000°N, 0.0000°E)
Time: 05:16:20
(UTC+00:00)
Language:

USA 274 - Orbit

View from above orbital plane
View from above orbital plane
View from above satellite
View from above satellite

Ground track
Ground track

The orbit data is extracted from the following two-line orbital elements,

1 42058U 17011A   18146.87628976 0.00000000  00000-0  00000-0 0    05
2 42058  63.4390  82.8947 0087000 177.4011 182.5989 13.40754868    08
Epoch (UTC): 26 May 2018 21:01:51
Eccentricity: 0.0087000
inclination: 63.4390°
perigee height: 1041 km
apogee height: 1171 km
right ascension of ascending node: 82.8947°
argument of perigee: 177.4011°
revolutions per day: 13.40754868
mean anomaly at epoch: 182.5989°
orbit number at epoch: 0

The dashed part of the orbit path shows where the satellite is in the earth's shadow,  

DLR